Charleston, SC

9:36 PM EDT on August 20, 2017 (GMT -0400)
Charleston Air Force Base-International

Weather History for KCHS - January, 2011

Change the Weather History Date:

Friday, January 14, 2011

  Actual Average Record
Temperature  
Mean Temperature 35 °F 48 °F  
Max Temperature 50 °F 59 °F 79 °F (2013)
Min Temperature 19 °F 37 °F 19 °F (2011)
Degree Days  
Heating Degree Days 30 17  
Month to date heating degree days 315 238  
Since 1 July heating degree days 1252 976  
Cooling Degree Days 0 0  
Month to date cooling degree days 0  
Year to date cooling degree days 0  
Moisture  
Dew Point 22 °F    
Average Humidity 66    
Maximum Humidity 100    
Minimum Humidity 31    
Precipitation  
Precipitation 0.00 in 0.13 in 1.65 in (1995)
Month to date precipitation 1.10 1.65  
Year to date precipitation 1.10 1.65  
Snow  
Snow 0.00 in 0.00 in - ()
Month to date snowfall T  
Since 1 July snowfall 0.2 0.4  
Snow Depth 0.00 in    
Sea Level Pressure  
Sea Level Pressure 30.41 in    
Wind  
Wind Speed 2 mph (NNE)    
Max Wind Speed 8 mph    
Max Gust Speed 10 mph    
Visibility 8 miles    
Events      
T = Trace of Precipitation, MM = Missing Value Source: NWS Daily Summary

Daily Weather History Graph

Daily Weather History Graph

Search for Another Location

Airport or City:

Trip Planner

Search our weather history database for the weather conditions in past years. The results will help you decide how hot, cold, wet, or windy it might be!

Date:

Astronomy

Jan. 14, 2011 Rise Set
Actual Time 7:23 AM EST 5:35 PM EST
Civil Twilight 6:56 AM EST 6:02 PM EST
Nautical Twilight 6:26 AM EST 6:32 PM EST
Astronomical Twilight 5:56 AM EST 7:02 PM EST
Moon 12:52 PM EST (1/14) 2:22 AM EST (1/14)
Length of Visible Light 11h 05m
Length of Day
10h 12m
Waxing Gibbous, 71% of the Moon is Illuminated
Jan 14
Waxing Gibbous
Jan 19
Full
Jan 26
Last Quarter
Feb 2
New
Feb 11
First Quarter

Hourly Weather History & Observations

Time (EST) Temp. Windchill Dew Point Humidity Pressure Visibility Wind Dir Wind Speed Gust Speed Precip Events Conditions
12:56 AM 24.1 °F - 19.0 °F 81% 30.42 in 10.0 mi Calm Calm - N/A   Clear
1:56 AM 23.0 °F - 18.0 °F 81% 30.42 in 9.0 mi Calm Calm - N/A   Clear
2:56 AM 21.9 °F - 19.0 °F 89% 30.43 in 9.0 mi Calm Calm - N/A   Clear
3:56 AM 23.0 °F - 19.0 °F 85% 30.43 in 8.0 mi Calm Calm - N/A   Clear
4:56 AM 21.9 °F - 19.0 °F 89% 30.43 in 7.0 mi Calm Calm - N/A   Clear
5:56 AM 21.9 °F - 18.0 °F 85% 30.43 in 8.0 mi Calm Calm - N/A   Clear
6:56 AM 19.9 °F - 17.1 °F 89% 30.45 in 7.0 mi Calm Calm - N/A   Clear
7:56 AM 21.0 °F 12.4 °F 19.0 °F 92% 30.46 in 7.0 mi NNW 6.9 mph - N/A   Clear
8:56 AM 30.9 °F 27.5 °F 23.0 °F 72% 30.47 in 10.0 mi North 3.5 mph - N/A   Clear
9:56 AM 36.0 °F 32.1 °F 21.0 °F 55% 30.48 in 10.0 mi NE 4.6 mph - N/A   Clear
10:56 AM 41.0 °F 38.0 °F 19.0 °F 41% 30.46 in 10.0 mi NNE 4.6 mph - N/A   Clear
11:56 AM 44.1 °F 42.5 °F 21.0 °F 40% 30.43 in 10.0 mi Variable 3.5 mph - 0.01 in   Clear
12:56 PM 46.0 °F - 21.0 °F 37% 30.40 in 10.0 mi Calm Calm - N/A   Clear
1:56 PM 46.9 °F - 21.9 °F 37% 30.38 in 10.0 mi Calm Calm - N/A   Clear
2:56 PM 48.9 °F - 21.0 °F 33% 30.37 in 10.0 mi Calm Calm - N/A   Clear
3:56 PM 48.0 °F - 19.0 °F 32% 30.37 in 10.0 mi Calm Calm - N/A   Clear
4:56 PM 46.9 °F - 19.0 °F 33% 30.38 in 10.0 mi East 3.5 mph - N/A   Clear
5:56 PM 39.9 °F 37.8 °F 27.0 °F 60% 30.39 in 10.0 mi SE 3.5 mph - N/A   Clear
6:56 PM 39.0 °F 36.8 °F 28.9 °F 67% 30.40 in 10.0 mi South 3.5 mph - N/A   Clear
7:56 PM 35.1 °F - 30.0 °F 82% 30.39 in 7.0 mi Calm Calm - N/A   Clear
8:56 PM 33.1 °F - 30.0 °F 89% 30.39 in 6.0 mi Calm Calm - N/A   Clear
9:56 PM 28.9 °F 25.2 °F 28.0 °F 96% 30.40 in 6.0 mi North 3.5 mph - N/A   Clear
10:56 PM 28.0 °F 24.2 °F 27.0 °F 96% 30.38 in 5.0 mi NNW 3.5 mph - N/A   Clear
11:56 PM 27.0 °F - 26.1 °F 96% 30.36 in 4.0 mi Calm Calm - N/A   Clear